| time (UTC) | temp F | wind direction | speed MPH | gust MPH | rain 1hr in | rain 24hr in | rain mn in | humidity % | barometer mb |
| 20260906010904 | 59 | 0 | 0.0 | 0.0 | 0.00 | 0.00 | 0.00 | 79 | 1024.2 |
| 20260906010005 | 59 | 0 | 0.0 | 0.0 | 0.00 | 0.00 | 0.00 | 79 | 1024.1 |
| 20260906005405 | 59 | 0 | 0.0 | 0.0 | 0.00 | 0.00 | 0.00 | 79 | 1024.1 |
| 20260906004503 | 59 | 0 | 0.0 | 0.0 | 0.00 | 0.00 | 0.00 | 79 | 1024.2 |
| 20260906003606 | 59 | 0 | 0.0 | 0.0 | 0.00 | 0.00 | 0.00 | 79 | 1024.2 |
| 20260906002703 | 59 | 0 | 0.0 | 0.0 | 0.00 | 0.00 | 0.00 | 79 | 1024.3 |
| 20260906001805 | 59 | 0 | 0.0 | 0.0 | 0.00 | 0.00 | 0.00 | 78 | 1024.4 |
| 20260906000906 | 59 | 0 | 0.0 | 0.0 | 0.00 | 0.00 | 0.00 | 78 | 1024.5 |
| 20260906000003 | 60 | 165 | 0.0 | 2.0 | 0.00 | 0.00 | 0.00 | 78 | 1024.6 |
| 20260905235405 | 60 | 165 | 0.0 | 2.0 | 0.00 | 0.00 | 0.00 | 78 | 1024.5 |
| 20260905234503 | 59 | 165 | 0.0 | 1.0 | 0.00 | 0.00 | 0.00 | 78 | 1024.4 |
| 20260905232706 | 60 | 0 | 0.0 | 0.0 | 0.00 | 0.00 | 0.00 | 78 | 1024.5 |
| 20260905231803 | 60 | 165 | 0.0 | 1.0 | 0.00 | 0.00 | 0.00 | 77 | 1024.4 |
| 20260905230905 | 60 | 165 | 0.0 | 1.0 | 0.00 | 0.00 | 0.00 | 77 | 1024.4 |
| 20260905230005 | 60 | 165 | 0.0 | 1.0 | 0.00 | 0.00 | 0.00 | 77 | 1024.5 |
| 20260905225613 | 60 | 165 | 0.0 | 1.0 | 0.00 | 0.00 | 0.00 | 77 | 1024.5 |
| 20260905224504 | 60 | 0 | 0.0 | 0.0 | 0.00 | 0.00 | 0.00 | 76 | 1024.5 |
| 20260905223605 | 60 | 0 | 0.0 | 0.0 | 0.00 | 0.00 | 0.00 | 76 | 1024.6 |
| 20260905222915 | 61 | 165 | 0.0 | 1.0 | 0.00 | 0.00 | 0.00 | 76 | 1024.5 |
| 20260905222018 | 61 | 165 | 0.0 | 1.0 | 0.00 | 0.00 | 0.00 | 75 | 1024.5 |
| 20260905221115 | 61 | 0 | 0.0 | 0.0 | 0.00 | 0.00 | 0.00 | 75 | 1024.4 |
| 20260905220004 | 61 | 165 | 0.0 | 2.0 | 0.00 | 0.00 | 0.00 | 75 | 1024.4 |
| 20260905215403 | 61 | 165 | 0.0 | 2.0 | 0.00 | 0.00 | 0.00 | 75 | 1024.5 |
| 20260905214716 | 61 | 164 | 0.0 | 2.0 | 0.00 | 0.00 | 0.00 | 75 | 1024.7 |
| 20260905213605 | 61 | 0 | 0.0 | 0.0 | 0.00 | 0.00 | 0.00 | 74 | 1024.3 |
| 20260905212705 | 62 | 162 | 0.0 | 2.0 | 0.00 | 0.00 | 0.00 | 74 | 1024.2 |
| 20260905211805 | 62 | 162 | 0.0 | 2.0 | 0.00 | 0.00 | 0.00 | 74 | 1024.2 |
| 20260905210905 | 62 | 162 | 0.0 | 2.0 | 0.00 | 0.00 | 0.00 | 73 | 1024.2 |
| 20260905210218 | 62 | 162 | 0.0 | 1.0 | 0.00 | 0.00 | 0.00 | 73 | 1024.2 |
| 20260905205614 | 62 | 162 | 0.0 | 1.0 | 0.00 | 0.00 | 0.00 | 72 | 1024.1 |
| 20260905204506 | 63 | 161 | 0.0 | 4.0 | 0.00 | 0.00 | 0.00 | 72 | 1024.2 |
| 20260905203606 | 63 | 162 | 0.0 | 2.0 | 0.00 | 0.00 | 0.00 | 72 | 1024.1 |
| 20260905202703 | 63 | 162 | 0.0 | 2.0 | 0.00 | 0.00 | 0.00 | 71 | 1024.3 |
| 20260905200004 | 64 | 162 | 0.0 | 2.0 | 0.00 | 0.00 | 0.00 | 69 | 1024.3 |
| 20260905195615 | 65 | 162 | 0.0 | 2.0 | 0.00 | 0.00 | 0.00 | 68 | 1024.2 |
| 20260905194508 | 65 | 161 | 1.0 | 4.0 | 0.00 | 0.00 | 0.00 | 68 | 1024.1 |
| 20260905193605 | 66 | 161 | 1.0 | 4.0 | 0.00 | 0.00 | 0.00 | 67 | 1024.2 |
| 20260905191804 | 66 | 166 | 1.0 | 6.0 | 0.00 | 0.00 | 0.00 | 65 | 1024.0 |
| 20260905190903 | 67 | 155 | 1.0 | 6.0 | 0.00 | 0.00 | 0.00 | 63 | 1023.7 |
| 20260905190214 | 68 | 149 | 0.0 | 3.0 | 0.00 | 0.00 | 0.00 | 62 | 1023.7 |
| 20260905185403 | 68 | 146 | 0.0 | 3.0 | 0.00 | 0.00 | 0.00 | 59 | 1023.7 |
| 20260905184505 | 69 | 169 | 1.0 | 5.0 | 0.00 | 0.00 | 0.00 | 57 | 1023.6 |
| 20260905183815 | 70 | 212 | 0.0 | 4.0 | 0.00 | 0.00 | 0.00 | 54 | 1023.5 |
| 20260905182708 | 70 | 222 | 0.0 | 1.0 | 0.00 | 0.00 | 0.00 | 51 | 1023.4 |
| 20260905181805 | 71 | 222 | 0.0 | 2.0 | 0.00 | 0.00 | 0.00 | 50 | 1023.3 |
| 20260905180904 | 71 | 221 | 0.0 | 1.0 | 0.00 | 0.00 | 0.00 | 49 | 1023.3 |
| 20260905180006 | 72 | 221 | 0.0 | 1.0 | 0.00 | 0.00 | 0.00 | 49 | 1023.2 |
| 20260905175405 | 72 | 221 | 0.0 | 3.0 | 0.00 | 0.00 | 0.00 | 49 | 1023.2 |
| 20260905174506 | 72 | 221 | 0.0 | 4.0 | 0.00 | 0.00 | 0.00 | 48 | 1023.2 |
| 20260905173606 | 73 | 218 | 0.0 | 1.0 | 0.00 | 0.00 | 0.00 | 48 | 1023.3 |
| 20260905172704 | 73 | 217 | 0.0 | 2.0 | 0.00 | 0.00 | 0.00 | 47 | 1023.3 |
| 20260905171804 | 74 | 217 | 0.0 | 2.0 | 0.00 | 0.00 | 0.00 | 46 | 1023.3 |
| 20260905170906 | 74 | 217 | 0.0 | 2.0 | 0.00 | 0.00 | 0.00 | 45 | 1023.3 |
| 20260905170005 | 74 | 217 | 0.0 | 2.0 | 0.00 | 0.00 | 0.00 | 45 | 1023.3 |
| 20260905165406 | 75 | 216 | 0.0 | 3.0 | 0.00 | 0.00 | 0.00 | 45 | 1023.3 |
| 20260905164504 | 75 | 224 | 0.0 | 3.0 | 0.00 | 0.00 | 0.00 | 44 | 1023.3 |
| 20260905163606 | 76 | 272 | 0.0 | 2.0 | 0.00 | 0.00 | 0.00 | 44 | 1023.3 |
| 20260905162919 | 76 | 269 | 1.0 | 4.0 | 0.00 | 0.00 | 0.00 | 44 | 1023.3 |
| 20260905161805 | 76 | 207 | 0.0 | 2.0 | 0.00 | 0.00 | 0.00 | 43 | 1023.4 |
| 20260905160905 | 76 | 198 | 1.0 | 4.0 | 0.00 | 0.00 | 0.00 | 43 | 1023.4 |
| 20260905160216 | 76 | 207 | 1.0 | 5.0 | 0.00 | 0.00 | 0.00 | 43 | 1023.4 |
| 20260905155612 | 77 | 196 | 1.0 | 7.0 | 0.00 | 0.00 | 0.00 | 43 | 1023.4 |
| 20260905154503 | 76 | 287 | 1.0 | 4.0 | 0.00 | 0.00 | 0.00 | 43 | 1023.4 |
| 20260905153605 | 76 | 303 | 1.0 | 4.0 | 0.00 | 0.00 | 0.00 | 43 | 1023.5 |
| 20260905152703 | 76 | 237 | 1.0 | 4.0 | 0.00 | 0.00 | 0.00 | 43 | 1023.6 |
| 20260905151805 | 76 | 213 | 1.0 | 2.0 | 0.00 | 0.00 | 0.00 | 45 | 1023.6 |
| 20260905150905 | 75 | 250 | 0.0 | 3.0 | 0.00 | 0.00 | 0.00 | 45 | 1023.6 |
| 20260905150005 | 75 | 271 | 1.0 | 3.0 | 0.00 | 0.00 | 0.00 | 46 | 1023.5 |
| 20260905145406 | 75 | 267 | 1.0 | 3.0 | 0.00 | 0.00 | 0.00 | 47 | 1023.6 |
| 20260905144505 | 75 | 285 | 1.0 | 4.0 | 0.00 | 0.00 | 0.00 | 46 | 1023.6 |
| 20260905143603 | 75 | 317 | 1.0 | 2.0 | 0.00 | 0.00 | 0.00 | 47 | 1023.6 |
| 20260905142705 | 74 | 343 | 1.0 | 5.0 | 0.00 | 0.00 | 0.00 | 47 | 1023.6 |
| 20260905141805 | 75 | 9 | 1.0 | 5.0 | 0.00 | 0.00 | 0.00 | 46 | 1023.6 |
| 20260905140903 | 76 | 291 | 1.0 | 4.0 | 0.00 | 0.00 | 0.00 | 46 | 1023.6 |
| 20260905140005 | 76 | 242 | 1.0 | 3.0 | 0.00 | 0.00 | 0.00 | 45 | 1023.6 |
| 20260905135404 | 76 | 238 | 0.0 | 3.0 | 0.00 | 0.00 | 0.00 | 46 | 1023.5 |
| 20260905134504 | 76 | 237 | 1.0 | 4.0 | 0.00 | 0.00 | 0.00 | 46 | 1023.5 |
| 20260905133818 | 75 | 328 | 1.0 | 5.0 | 0.00 | 0.00 | 0.00 | 47 | 1023.5 |
| 20260905132704 | 74 | 305 | 1.0 | 4.0 | 0.00 | 0.00 | 0.00 | 48 | 1023.4 |
| 20260905131803 | 74 | 260 | 1.0 | 4.0 | 0.00 | 0.00 | 0.00 | 49 | 1023.5 |
| 20260905131115 | 74 | 244 | 1.0 | 4.0 | 0.00 | 0.00 | 0.00 | 49 | 1023.5 |
| 20260905130006 | 73 | 237 | 1.0 | 5.0 | 0.00 | 0.00 | 0.00 | 50 | 1023.5 |
| 20260905125614 | 73 | 240 | 1.0 | 3.0 | 0.00 | 0.00 | 0.00 | 50 | 1023.4 |
| 20260905124508 | 73 | 228 | 1.0 | 5.0 | 0.00 | 0.00 | 0.00 | 51 | 1023.6 |
| 20260905123814 | 73 | 216 | 1.0 | 5.0 | 0.00 | 0.00 | 0.00 | 50 | 1023.4 |
| 20260905122703 | 73 | 315 | 1.0 | 4.0 | 0.00 | 0.00 | 0.00 | 51 | 1023.3 |
| 20260905121805 | 73 | 348 | 1.0 | 6.0 | 0.00 | 0.00 | 0.00 | 51 | 1023.1 |
| 20260905120903 | 73 | 302 | 1.0 | 5.0 | 0.00 | 0.00 | 0.00 | 52 | 1023.2 |
| 20260905120004 | 72 | 356 | 1.0 | 3.0 | 0.00 | 0.00 | 0.00 | 53 | 1023.2 |
| 20260905115403 | 71 | 340 | 1.0 | 5.0 | 0.00 | 0.00 | 0.00 | 53 | 1023.2 |
| 20260905114505 | 72 | 319 | 2.0 | 5.0 | 0.00 | 0.00 | 0.00 | 51 | 1023.2 |
| 20260905113603 | 73 | 305 | 1.0 | 4.0 | 0.00 | 0.00 | 0.00 | 52 | 1023.4 |
| 20260905112704 | 72 | 333 | 1.0 | 8.0 | 0.00 | 0.00 | 0.00 | 51 | 1023.5 |
| 20260905112019 | 72 | 325 | 1.0 | 8.0 | 0.00 | 0.00 | 0.00 | 53 | 1023.5 |
| 20260905110906 | 72 | 260 | 1.0 | 7.0 | 0.00 | 0.00 | 0.00 | 54 | 1023.3 |
| 20260905110017 | 71 | 299 | 1.0 | 3.0 | 0.00 | 0.00 | 0.00 | 55 | 1023.5 |
| 20260905105405 | 71 | 310 | 1.0 | 6.0 | 0.00 | 0.00 | 0.00 | 55 | 1023.5 |
| 20260905104504 | 71 | 251 | 1.0 | 4.0 | 0.00 | 0.00 | 0.00 | 55 | 1023.4 |
| 20260905103604 | 70 | 286 | 1.0 | 5.0 | 0.00 | 0.00 | 0.00 | 56 | 1023.3 |
| 20260905102705 | 70 | 269 | 1.0 | 3.0 | 0.00 | 0.00 | 0.00 | 58 | 1023.3 |
| 20260905101805 | 69 | 331 | 1.0 | 5.0 | 0.00 | 0.00 | 0.00 | 60 | 1023.3 |
| 20260905100905 | 68 | 334 | 1.0 | 4.0 | 0.00 | 0.00 | 0.00 | 61 | 1023.2 |
| 20260905100007 | 69 | 312 | 1.0 | 4.0 | 0.00 | 0.00 | 0.00 | 60 | 1023.1 |
| 20260905095404 | 68 | 327 | 1.0 | 4.0 | 0.00 | 0.00 | 0.00 | 62 | 1023.0 |
| 20260905094506 | 68 | 318 | 1.0 | 4.0 | 0.00 | 0.00 | 0.00 | 62 | 1023.1 |
| 20260905092703 | 67 | 313 | 1.0 | 6.0 | 0.00 | 0.00 | 0.00 | 65 | 1022.9 |
| 20260905091804 | 66 | 289 | 1.0 | 5.0 | 0.00 | 0.00 | 0.00 | 66 | 1022.8 |
| 20260905090903 | 66 | 333 | 1.0 | 4.0 | 0.00 | 0.00 | 0.00 | 68 | 1022.7 |
| 20260905090003 | 65 | 309 | 1.0 | 4.0 | 0.00 | 0.00 | 0.00 | 69 | 1022.6 |
| 20260905085617 | 65 | 317 | 1.0 | 4.0 | 0.00 | 0.00 | 0.00 | 70 | 1022.6 |
| 20260905084504 | 64 | 309 | 1.0 | 3.0 | 0.00 | 0.00 | 0.00 | 71 | 1022.6 |
| 20260905083816 | 64 | 306 | 0.0 | 3.0 | 0.00 | 0.00 | 0.00 | 72 | 1022.6 |
| 20260905082705 | 63 | 316 | 1.0 | 3.0 | 0.00 | 0.00 | 0.00 | 73 | 1022.6 |
| 20260905081805 | 62 | 252 | 1.0 | 6.0 | 0.00 | 0.00 | 0.00 | 75 | 1022.4 |
| 20260905081118 | 62 | 248 | 1.0 | 4.0 | 0.00 | 0.00 | 0.00 | 76 | 1022.4 |
| 20260905080005 | 61 | 245 | 1.0 | 6.0 | 0.00 | 0.03 | 0.00 | 76 | 1022.4 |
| 20260905075408 | 61 | 264 | 1.0 | 4.0 | 0.00 | 0.03 | 0.00 | 78 | 1022.5 |
| 20260905074715 | 60 | 292 | 1.0 | 4.0 | 0.00 | 0.03 | 0.00 | 78 | 1022.3 |
| 20260905073603 | 60 | 255 | 1.0 | 8.0 | 0.00 | 0.03 | 0.00 | 79 | 1022.2 |
| 20260905072703 | 59 | 258 | 1.0 | 4.0 | 0.00 | 0.03 | 0.00 | 80 | 1022.1 |
| 20260905071804 | 59 | 252 | 0.0 | 4.0 | 0.00 | 0.03 | 0.00 | 80 | 1021.9 |
| 20260905070904 | 58 | 249 | 0.0 | 2.0 | 0.00 | 0.03 | 0.00 | 83 | 1021.8 |
| 20260905070004 | 57 | 228 | 1.0 | 4.0 | 0.00 | 0.03 | 0.00 | 84 | 1021.8 |
| 20260905065405 | 57 | 206 | 0.0 | 3.0 | 0.00 | 0.03 | 0.00 | 85 | 1021.8 |
| 20260905064503 | 56 | 220 | 0.0 | 3.0 | 0.00 | 0.03 | 0.00 | 87 | 1021.7 |
| 20260905063605 | 55 | 218 | 0.0 | 2.0 | 0.00 | 0.03 | 0.00 | 89 | 1021.5 |
| 20260905062703 | 55 | 218 | 0.0 | 3.0 | 0.00 | 0.03 | 0.00 | 89 | 1021.4 |
| 20260905061803 | 54 | 216 | 0.0 | 3.0 | 0.00 | 0.03 | 0.00 | 90 | 1021.4 |
| 20260905060906 | 54 | 192 | 0.0 | 3.0 | 0.00 | 0.03 | 0.00 | 90 | 1021.2 |
| 20260905060004 | 54 | 171 | 0.0 | 1.0 | 0.00 | 0.03 | 0.00 | 90 | 1021.1 |
| 20260905055403 | 54 | 171 | 0.0 | 2.0 | 0.00 | 0.03 | 0.00 | 90 | 1021.1 |
| 20260905054716 | 54 | 189 | 0.0 | 4.0 | 0.00 | 0.03 | 0.00 | 90 | 1021.0 |
| 20260905053603 | 54 | 252 | 0.0 | 3.0 | 0.00 | 0.03 | 0.00 | 90 | 1020.9 |
| 20260905052707 | 54 | 249 | 0.0 | 3.0 | 0.00 | 0.03 | 0.00 | 89 | 1020.8 |
| 20260905052013 | 54 | 248 | 0.0 | 2.0 | 0.00 | 0.03 | 0.00 | 89 | 1020.7 |
| 20260905050905 | 54 | 248 | 0.0 | 3.0 | 0.00 | 0.03 | 0.00 | 89 | 1020.7 |
| 20260905050003 | 54 | 248 | 0.0 | 3.0 | 0.00 | 0.03 | 0.00 | 89 | 1020.6 |
| 20260905045405 | 54 | 248 | 0.0 | 3.0 | 0.00 | 0.03 | 0.00 | 89 | 1020.5 |
| 20260905044505 | 54 | 244 | 0.0 | 2.0 | 0.00 | 0.03 | 0.00 | 89 | 1020.2 |
| 20260905043605 | 54 | 250 | 0.0 | 3.0 | 0.00 | 0.03 | 0.00 | 88 | 1020.2 |
| 20260905042703 | 54 | 260 | 0.0 | 3.0 | 0.00 | 0.03 | 0.00 | 88 | 1020.2 |
| 20260905041805 | 54 | 253 | 0.0 | 4.0 | 0.00 | 0.03 | 0.00 | 88 | 1020.1 |
| 20260905040905 | 54 | 214 | 0.0 | 3.0 | 0.00 | 0.03 | 0.00 | 88 | 1020.2 |
| 20260905040004 | 55 | 214 | 0.0 | 2.0 | 0.00 | 0.03 | 0.00 | 88 | 1020.2 |
| 20260905035403 | 55 | 214 | 0.0 | 3.0 | 0.00 | 0.03 | 0.00 | 88 | 1020.1 |
| 20260905034503 | 55 | 214 | 0.0 | 3.0 | 0.00 | 0.03 | 0.00 | 88 | 1019.9 |
| 20260905033605 | 55 | 214 | 0.0 | 2.0 | 0.00 | 0.03 | 0.00 | 88 | 1019.9 |
| 20260905032703 | 55 | 195 | 0.0 | 3.0 | 0.00 | 0.03 | 0.00 | 88 | 1019.8 |
| 20260905031805 | 55 | 162 | 0.0 | 2.0 | 0.00 | 0.03 | 0.00 | 87 | 1019.7 |
| 20260905030903 | 55 | 161 | 0.0 | 2.0 | 0.00 | 0.03 | 0.00 | 87 | 1019.6 |
| 20260905030214 | 55 | 177 | 0.0 | 4.0 | 0.00 | 0.03 | 0.00 | 87 | 1019.5 |
| 20260905025403 | 55 | 192 | 0.0 | 5.0 | 0.00 | 0.03 | 0.00 | 87 | 1019.4 |
| 20260905024505 | 55 | 197 | 0.0 | 3.0 | 0.00 | 0.03 | 0.00 | 87 | 1019.4 |
| 20260905023603 | 55 | 241 | 0.0 | 4.0 | 0.00 | 0.03 | 0.00 | 87 | 1019.3 |
| 20260905022703 | 55 | 240 | 0.0 | 3.0 | 0.00 | 0.03 | 0.00 | 87 | 1019.2 |
| 20260905021803 | 56 | 235 | 0.0 | 3.0 | 0.00 | 0.03 | 0.00 | 87 | 1019.2 |
| 20260905020905 | 56 | 215 | 0.0 | 1.0 | 0.00 | 0.03 | 0.00 | 87 | 1019.1 |
| 20260905020005 | 56 | 218 | 0.0 | 2.0 | 0.00 | 0.03 | 0.00 | 86 | 1019.1 |
| 20260905015406 | 56 | 218 | 0.0 | 2.0 | 0.00 | 0.03 | 0.00 | 86 | 1019.0 |
| 20260905014503 | 56 | 218 | 0.0 | 2.0 | 0.00 | 0.03 | 0.00 | 86 | 1019.0 |
| 20260905013605 | 56 | 216 | 0.0 | 3.0 | 0.00 | 0.03 | 0.00 | 86 | 1019.0 |
| 20260905012703 | 56 | 233 | 0.0 | 4.0 | 0.00 | 0.03 | 0.00 | 86 | 1018.9 |
| 20260905011805 | 56 | 235 | 0.0 | 2.0 | 0.00 | 0.03 | 0.00 | 85 | 1018.9 |